Time,TemperatureF,DewpointF,PressureIn,WindDirection,WindDirectionDegrees,WindSpeedMPH,WindSpeedGustMPH,Humidity,HourlyPrecipIn,Conditions,Clouds,dailyrainin,SoftwareType,DateUTC
2013-02-28 00:00:00,66.1,64.5,30.01,WSW,247,6.3,9.1,96,0.00,,,0.42,Rainwise IP-100,2013-02-28 05:00:00,
2013-02-28 00:05:00,66.0,64.5,30.02,WNW,292,3.3,8.6,96,0.00,,,0.00,Rainwise IP-100,2013-02-28 05:05:00,
2013-02-28 00:10:00,65.9,64.5,30.01,WNW,292,7.5,8.6,96,0.00,,,0.00,Rainwise IP-100,2013-02-28 05:10:00,
2013-02-28 00:15:00,65.8,64.5,30.01,West,270,3.3,8.6,96,0.00,,,0.00,Rainwise IP-100,2013-02-28 05:15:00,
2013-02-28 00:20:00,65.7,64.0,30.01,WSW,247,6.3,8.4,96,0.00,,,0.00,Rainwise IP-100,2013-02-28 05:20:00,
2013-02-28 00:25:00,65.7,64.0,30.02,WNW,292,2.3,10.3,96,0.00,,,0.00,Rainwise IP-100,2013-02-28 05:25:00,
2013-02-28 00:30:00,65.8,64.5,30.01,WSW,247,3.0,6.8,96,0.00,,,0.00,Rainwise IP-100,2013-02-28 05:30:00,
2013-02-28 00:36:00,65.8,64.5,30.01,WSW,247,6.8,9.1,96,0.00,,,0.00,Rainwise IP-100,2013-02-28 05:36:00,
2013-02-28 00:41:00,65.7,64.0,30.00,WSW,247,2.1,7.9,96,0.00,,,0.00,Rainwise IP-100,2013-02-28 05:41:00,
2013-02-28 00:46:00,65.7,64.0,30.01,WSW,247,3.3,7.9,96,0.00,,,0.00,Rainwise IP-100,2013-02-28 05:46:00,
2013-02-28 00:51:00,65.7,64.0,30.01,West,270,5.4,10.3,96,0.00,,,0.00,Rainwise IP-100,2013-02-28 05:51:00,
2013-02-28 00:56:00,65.6,64.0,30.01,West,270,6.8,10.5,96,0.00,,,0.00,Rainwise IP-100,2013-02-28 05:56:00,
2013-02-28 01:01:00,65.7,64.0,30.00,WSW,247,3.7,9.1,96,0.00,,,0.00,Rainwise IP-100,2013-02-28 06:01:00,
2013-02-28 01:06:00,65.7,64.0,30.00,WSW,247,5.6,5.6,96,0.00,,,0.00,Rainwise IP-100,2013-02-28 06:06:00,
2013-02-28 01:11:00,65.7,64.0,30.00,SW,225,2.8,6.1,96,0.00,,,0.00,Rainwise IP-100,2013-02-28 06:11:00,
2013-02-28 01:17:00,65.6,64.0,29.99,West,270,3.3,5.4,96,0.00,,,0.00,Rainwise IP-100,2013-02-28 06:17:00,
2013-02-28 01:22:00,65.7,64.0,30.00,West,270,5.8,7.0,96,0.00,,,0.00,Rainwise IP-100,2013-02-28 06:22:00,
2013-02-28 01:27:00,65.7,64.0,30.00,WSW,247,3.7,6.5,96,0.00,,,0.00,Rainwise IP-100,2013-02-28 06:27:00,
2013-02-28 01:32:00,65.7,64.0,30.00,WSW,247,3.3,6.8,95,0.00,,,0.00,Rainwise IP-100,2013-02-28 06:32:00,
2013-02-28 01:37:00,65.7,64.0,29.98,WSW,247,5.6,6.8,95,0.00,,,0.00,Rainwise IP-100,2013-02-28 06:37:00,
2013-02-28 01:42:00,65.7,64.0,29.98,WSW,247,3.5,7.9,95,0.00,,,0.00,Rainwise IP-100,2013-02-28 06:42:00,
2013-02-28 01:47:00,65.7,64.0,29.98,WSW,247,4.2,8.6,95,0.00,,,0.00,Rainwise IP-100,2013-02-28 06:47:00,
2013-02-28 01:53:00,65.6,63.5,29.98,WNW,292,7.9,7.9,94,0.00,,,0.00,Rainwise IP-100,2013-02-28 06:53:00,
2013-02-28 01:58:00,65.7,63.5,29.98,WNW,292,4.4,8.2,94,0.00,,,0.00,Rainwise IP-100,2013-02-28 06:58:00,
2013-02-28 02:03:00,65.6,63.5,29.97,WNW,292,3.7,6.8,94,0.00,,,0.00,Rainwise IP-100,2013-02-28 07:03:00,
2013-02-28 02:08:00,65.6,63.5,29.96,WSW,247,1.4,6.3,93,0.00,,,0.00,Rainwise IP-100,2013-02-28 07:08:00,
2013-02-28 02:13:00,65.5,63.5,29.96,WSW,247,1.6,7.0,93,0.00,,,0.00,Rainwise IP-100,2013-02-28 07:13:00,
2013-02-28 02:18:00,65.5,63.5,29.95,WSW,247,3.0,4.4,93,0.00,,,0.00,Rainwise IP-100,2013-02-28 07:18:00,
2013-02-28 02:23:00,65.5,63.5,29.97,WNW,292,4.7,6.8,93,0.00,,,0.00,Rainwise IP-100,2013-02-28 07:23:00,
2013-02-28 02:28:00,65.7,63.5,29.98,WNW,292,3.7,9.1,93,0.00,,,0.00,Rainwise IP-100,2013-02-28 07:28:00,
2013-02-28 02:34:00,65.7,63.5,29.98,WSW,247,3.7,8.2,93,0.00,,,0.00,Rainwise IP-100,2013-02-28 07:34:00,
2013-02-28 02:39:00,65.7,63.0,29.98,WNW,292,3.3,7.2,92,0.00,,,0.00,Rainwise IP-100,2013-02-28 07:39:00,
2013-02-28 02:44:00,65.7,63.0,29.97,WSW,247,4.9,7.0,92,0.00,,,0.00,Rainwise IP-100,2013-02-28 07:44:00,
2013-02-28 02:49:00,65.7,63.0,29.97,WSW,247,4.2,6.8,92,0.00,,,0.00,Rainwise IP-100,2013-02-28 07:49:00,
2013-02-28 02:54:00,65.5,63.0,29.98,WSW,247,3.5,8.6,92,0.00,,,0.00,Rainwise IP-100,2013-02-28 07:54:00,
2013-02-28 02:59:00,65.5,63.0,29.98,West,270,6.3,7.7,92,0.00,,,0.00,Rainwise IP-100,2013-02-28 07:59:00,
2013-02-28 03:04:00,65.5,63.0,29.98,WNW,292,4.4,8.4,92,0.00,,,0.00,Rainwise IP-100,2013-02-28 08:04:00,
2013-02-28 03:10:00,65.4,62.5,29.98,WNW,292,6.3,7.0,91,0.00,,,0.00,Rainwise IP-100,2013-02-28 08:10:00,
2013-02-28 03:15:00,65.3,62.5,29.98,WNW,292,8.9,13.3,91,0.00,,,0.00,Rainwise IP-100,2013-02-28 08:15:00,
2013-02-28 03:20:00,65.3,62.5,29.98,WNW,292,4.0,8.9,91,0.00,,,0.00,Rainwise IP-100,2013-02-28 08:20:00,
2013-02-28 03:25:00,65.2,62.0,29.99,NNE,22,6.8,10.3,90,0.00,,,0.00,Rainwise IP-100,2013-02-28 08:25:00,
2013-02-28 03:30:00,65.2,62.0,29.98,WNW,292,5.4,18.2,90,0.00,,,0.00,Rainwise IP-100,2013-02-28 08:30:00,
2013-02-28 03:35:00,65.1,61.5,29.98,WNW,292,7.2,12.6,89,0.00,,,0.00,Rainwise IP-100,2013-02-28 08:35:00,
2013-02-28 03:40:00,64.9,61.5,29.98,WNW,292,9.3,14.7,89,0.00,,,0.00,Rainwise IP-100,2013-02-28 08:40:00,
2013-02-28 03:45:00,64.7,61.0,29.98,West,270,8.9,12.6,89,0.00,,,0.00,Rainwise IP-100,2013-02-28 08:45:00,
2013-02-28 03:51:00,64.5,61.0,29.97,NW,315,4.7,11.4,89,0.00,,,0.00,Rainwise IP-100,2013-02-28 08:51:00,
2013-02-28 03:56:00,64.4,61.0,29.98,NW,315,5.1,10.5,89,0.00,,,0.00,Rainwise IP-100,2013-02-28 08:56:00,
2013-02-28 04:01:00,64.2,61.0,29.98,WNW,292,3.7,9.8,90,0.00,,,0.00,Rainwise IP-100,2013-02-28 09:01:00,
2013-02-28 04:06:00,64.0,61.0,29.98,WNW,292,4.7,13.1,90,0.00,,,0.00,Rainwise IP-100,2013-02-28 09:06:00,
2013-02-28 04:11:00,63.8,61.0,29.97,WNW,292,4.2,11.9,90,0.00,,,0.00,Rainwise IP-100,2013-02-28 09:11:00,
2013-02-28 04:16:00,63.7,60.5,29.98,WNW,292,6.3,13.3,90,0.00,,,0.00,Rainwise IP-100,2013-02-28 09:16:00,
2013-02-28 04:21:00,63.5,60.5,29.98,NW,315,3.5,12.6,90,0.00,,,0.00,Rainwise IP-100,2013-02-28 09:21:00,
2013-02-28 04:27:00,63.3,60.5,29.98,WNW,292,6.1,16.3,89,0.00,,,0.00,Rainwise IP-100,2013-02-28 09:27:00,
2013-02-28 04:32:00,63.2,60.0,29.97,WNW,292,8.2,11.2,89,0.00,,,0.00,Rainwise IP-100,2013-02-28 09:32:00,
2013-02-28 04:37:00,63.0,60.0,29.98,WNW,292,7.7,10.0,89,0.00,,,0.00,Rainwise IP-100,2013-02-28 09:37:00,
2013-02-28 04:42:00,62.9,60.0,29.99,WNW,292,7.0,10.5,89,0.00,,,0.00,Rainwise IP-100,2013-02-28 09:42:00,
2013-02-28 04:47:00,62.8,59.5,29.99,WNW,292,6.3,14.0,88,0.00,,,0.00,Rainwise IP-100,2013-02-28 09:47:00,
2013-02-28 04:52:00,62.7,59.0,29.99,WNW,292,8.9,13.3,88,0.00,,,0.00,Rainwise IP-100,2013-02-28 09:52:00,
2013-02-28 04:57:00,62.6,59.0,30.00,NNW,337,8.6,15.2,88,0.00,,,0.00,Rainwise IP-100,2013-02-28 09:57:00,
2013-02-28 05:02:00,62.5,59.0,30.00,North,360,3.0,10.5,88,0.00,,,0.00,Rainwise IP-100,2013-02-28 10:02:00,
2013-02-28 05:07:00,62.3,59.0,29.99,WNW,292,6.5,9.6,87,0.00,,,0.00,Rainwise IP-100,2013-02-28 10:07:00,
2013-02-28 05:13:00,62.2,58.0,29.99,WNW,292,4.7,11.0,87,0.00,,,0.00,Rainwise IP-100,2013-02-28 10:13:00,
2013-02-28 05:18:00,62.2,58.0,30.00,NW,315,4.2,12.6,87,0.00,,,0.00,Rainwise IP-100,2013-02-28 10:18:00,
2013-02-28 05:23:00,62.1,57.5,30.00,WNW,292,9.3,15.6,86,0.00,,,0.00,Rainwise IP-100,2013-02-28 10:23:00,
2013-02-28 05:28:00,62.0,56.5,30.00,NNW,337,4.2,15.4,83,0.00,,,0.00,Rainwise IP-100,2013-02-28 10:28:00,
2013-02-28 05:33:00,62.1,56.0,30.01,WNW,292,4.7,14.7,81,0.00,,,0.00,Rainwise IP-100,2013-02-28 10:33:00,
2013-02-28 05:38:00,62.0,56.0,30.02,WNW,292,5.8,14.7,81,0.00,,,0.00,Rainwise IP-100,2013-02-28 10:38:00,
2013-02-28 05:43:00,62.0,56.0,30.02,WNW,292,3.7,12.1,80,0.00,,,0.00,Rainwise IP-100,2013-02-28 10:43:00,
2013-02-28 05:48:00,61.9,55.0,30.01,West,270,2.3,12.4,79,0.00,,,0.00,Rainwise IP-100,2013-02-28 10:48:00,
2013-02-28 05:54:00,61.7,54.5,30.01,WNW,292,2.1,12.6,78,0.00,,,0.00,Rainwise IP-100,2013-02-28 10:54:00,
2013-02-28 05:59:00,61.7,54.5,30.02,NNW,337,1.6,7.0,78,0.00,,,0.00,Rainwise IP-100,2013-02-28 10:59:00,
2013-02-28 06:04:00,61.7,54.5,30.02,WNW,292,6.5,10.7,78,0.00,,,0.00,Rainwise IP-100,2013-02-28 11:04:00,
2013-02-28 06:09:00,61.6,54.5,30.02,WNW,292,4.4,9.8,78,0.00,,,0.00,Rainwise IP-100,2013-02-28 11:09:00,
2013-02-28 06:14:00,61.6,54.5,30.02,NW,315,3.7,7.9,78,0.00,,,0.00,Rainwise IP-100,2013-02-28 11:14:00,
2013-02-28 06:19:00,61.5,54.5,30.02,NW,315,8.2,8.2,78,0.00,,,0.00,Rainwise IP-100,2013-02-28 11:19:00,
2013-02-28 06:24:00,61.4,54.5,30.02,WNW,292,8.2,8.6,79,0.00,,,0.00,Rainwise IP-100,2013-02-28 11:24:00,
2013-02-28 06:29:00,61.3,54.5,30.03,NW,315,5.4,8.9,79,0.00,,,0.00,Rainwise IP-100,2013-02-28 11:29:00,
2013-02-28 06:35:00,61.3,54.5,30.03,West,270,4.2,8.2,79,0.00,,,0.00,Rainwise IP-100,2013-02-28 11:35:00,
2013-02-28 06:40:00,61.2,54.5,30.03,WNW,292,4.0,13.5,79,0.00,,,0.00,Rainwise IP-100,2013-02-28 11:40:00,
2013-02-28 06:45:00,61.2,54.5,30.02,WNW,292,4.7,7.2,79,0.00,,,0.00,Rainwise IP-100,2013-02-28 11:45:00,
2013-02-28 06:50:00,61.1,54.5,30.02,WNW,292,3.7,8.6,79,0.00,,,0.00,Rainwise IP-100,2013-02-28 11:50:00,
2013-02-28 06:55:00,61.0,54.5,30.02,WNW,292,7.5,11.0,79,0.00,,,0.00,Rainwise IP-100,2013-02-28 11:55:00,
2013-02-28 07:00:00,61.0,54.5,30.03,WNW,292,3.3,9.6,79,0.00,,,0.00,Rainwise IP-100,2013-02-28 12:00:00,
2013-02-28 07:05:00,61.1,54.5,30.03,WNW,292,6.5,7.5,79,0.00,,,0.00,Rainwise IP-100,2013-02-28 12:05:00,
2013-02-28 07:11:00,61.0,54.5,30.04,NNW,337,7.9,10.5,79,0.00,,,0.00,Rainwise IP-100,2013-02-28 12:11:00,
2013-02-28 07:16:00,61.0,54.5,30.03,NNW,337,4.4,12.8,79,0.00,,,0.00,Rainwise IP-100,2013-02-28 12:16:00,
2013-02-28 07:21:00,61.1,54.5,30.03,WSW,247,2.6,11.2,79,0.00,,,0.00,Rainwise IP-100,2013-02-28 12:21:00,
2013-02-28 07:26:00,61.1,54.5,30.04,WNW,292,4.4,8.9,80,0.00,,,0.00,Rainwise IP-100,2013-02-28 12:26:00,
2013-02-28 07:31:00,61.1,54.5,30.04,WNW,292,6.5,10.5,79,0.00,,,0.00,Rainwise IP-100,2013-02-28 12:31:00,
2013-02-28 07:36:00,61.0,54.5,30.04,NNW,337,5.8,7.9,79,0.00,,,0.00,Rainwise IP-100,2013-02-28 12:36:00,
2013-02-28 07:41:00,61.1,54.5,30.03,NW,315,4.0,10.0,79,0.00,,,0.00,Rainwise IP-100,2013-02-28 12:41:00,
2013-02-28 07:46:00,61.1,54.5,30.04,NW,315,4.9,7.5,79,0.00,,,0.00,Rainwise IP-100,2013-02-28 12:46:00,
2013-02-28 07:52:00,61.1,54.5,30.04,WNW,292,4.9,10.7,79,0.00,,,0.00,Rainwise IP-100,2013-02-28 12:52:00,
2013-02-28 07:57:00,61.1,54.5,30.04,NW,315,2.1,8.9,79,0.00,,,0.00,Rainwise IP-100,2013-02-28 12:57:00,
2013-02-28 08:02:00,61.3,54.5,30.04,NNW,337,6.5,9.8,79,0.00,,,0.00,Rainwise IP-100,2013-02-28 13:02:00,
2013-02-28 08:07:00,61.4,54.5,30.05,WNW,292,5.1,10.7,78,0.00,,,0.00,Rainwise IP-100,2013-02-28 13:07:00,
2013-02-28 08:12:00,61.4,54.5,30.04,NNW,337,6.3,11.9,78,0.00,,,0.00,Rainwise IP-100,2013-02-28 13:12:00,
2013-02-28 08:17:00,61.3,54.0,30.04,West,270,5.6,11.9,77,0.00,,,0.00,Rainwise IP-100,2013-02-28 13:17:00,
2013-02-28 08:22:00,61.3,54.0,30.05,NW,315,6.8,12.1,77,0.00,,,0.00,Rainwise IP-100,2013-02-28 13:22:00,
2013-02-28 08:27:00,61.4,54.0,30.05,West,270,8.4,8.4,77,0.00,,,0.00,Rainwise IP-100,2013-02-28 13:27:00,
2013-02-28 08:33:00,61.5,54.0,30.05,WNW,292,9.1,9.3,77,0.00,,,0.00,Rainwise IP-100,2013-02-28 13:33:00,
2013-02-28 08:38:00,61.6,54.0,30.05,NNW,337,2.1,10.0,77,0.00,,,0.00,Rainwise IP-100,2013-02-28 13:38:00,
2013-02-28 08:43:00,61.7,54.0,30.06,NNW,337,8.2,10.0,77,0.00,,,0.00,Rainwise IP-100,2013-02-28 13:43:00,
2013-02-28 08:48:00,61.7,54.0,30.06,WNW,292,7.0,13.3,76,0.00,,,0.00,Rainwise IP-100,2013-02-28 13:48:00,
2013-02-28 08:53:00,61.8,54.5,30.06,NNW,337,2.8,10.7,76,0.00,,,0.00,Rainwise IP-100,2013-02-28 13:53:00,
2013-02-28 08:58:00,62.1,54.5,30.06,WNW,292,6.1,8.6,76,0.00,,,0.00,Rainwise IP-100,2013-02-28 13:58:00,
2013-02-28 09:03:00,62.2,54.5,30.05,North,360,5.6,12.4,76,0.00,,,0.00,Rainwise IP-100,2013-02-28 14:03:00,
2013-02-28 09:08:00,62.3,54.5,30.06,NW,315,5.1,12.6,75,0.00,,,0.00,Rainwise IP-100,2013-02-28 14:08:00,
2013-02-28 09:14:00,62.5,54.5,30.06,NW,315,4.4,13.1,75,0.00,,,0.00,Rainwise IP-100,2013-02-28 14:14:00,
2013-02-28 09:19:00,62.8,54.5,30.06,WNW,292,5.8,9.1,74,0.00,,,0.00,Rainwise IP-100,2013-02-28 14:19:00,
2013-02-28 09:24:00,63.0,54.5,30.06,WNW,292,6.3,11.2,74,0.00,,,0.00,Rainwise IP-100,2013-02-28 14:24:00,
2013-02-28 09:29:00,63.0,54.0,30.06,NNW,337,8.2,12.4,73,0.00,,,0.00,Rainwise IP-100,2013-02-28 14:29:00,
2013-02-28 09:34:00,63.2,54.0,30.06,NNW,337,6.8,12.6,72,0.00,,,0.00,Rainwise IP-100,2013-02-28 14:34:00,
2013-02-28 09:39:00,63.7,54.0,30.06,NNW,337,3.7,10.3,71,0.00,,,0.00,Rainwise IP-100,2013-02-28 14:39:00,
2013-02-28 09:44:00,64.1,54.0,30.06,NNW,337,6.3,13.3,70,0.00,,,0.00,Rainwise IP-100,2013-02-28 14:44:00,
2013-02-28 09:50:00,64.3,54.0,30.06,NNW,337,4.2,10.7,69,0.00,,,0.00,Rainwise IP-100,2013-02-28 14:50:00,
2013-02-28 09:55:00,64.6,53.5,30.06,NW,315,11.0,11.7,68,0.00,,,0.00,Rainwise IP-100,2013-02-28 14:55:00,
2013-02-28 10:00:00,64.5,53.5,30.06,NNW,337,5.6,13.8,67,0.00,,,0.00,Rainwise IP-100,2013-02-28 15:00:00,
2013-02-28 10:05:00,64.3,53.5,30.06,NNW,337,6.5,10.3,67,0.00,,,0.00,Rainwise IP-100,2013-02-28 15:05:00,
2013-02-28 10:10:00,64.4,53.5,30.06,WNW,292,7.0,10.3,68,0.00,,,0.00,Rainwise IP-100,2013-02-28 15:10:00,
2013-02-28 10:15:00,64.4,53.0,30.06,NNE,22,7.7,13.1,66,0.00,,,0.00,Rainwise IP-100,2013-02-28 15:15:00,
2013-02-28 10:20:00,64.4,52.0,30.06,WNW,292,6.1,10.3,64,0.00,,,0.00,Rainwise IP-100,2013-02-28 15:20:00,
2013-02-28 10:25:00,64.6,51.0,30.05,NNW,337,3.3,11.0,63,0.00,,,0.00,Rainwise IP-100,2013-02-28 15:25:00,
2013-02-28 10:31:00,64.7,52.0,30.05,WNW,292,5.4,7.5,64,0.00,,,0.00,Rainwise IP-100,2013-02-28 15:31:00,
2013-02-28 10:36:00,64.8,53.0,30.06,NW,315,7.5,11.7,64,0.00,,,0.00,Rainwise IP-100,2013-02-28 15:36:00,
2013-02-28 10:41:00,65.0,52.0,30.05,NW,315,2.8,10.0,63,0.00,,,0.00,Rainwise IP-100,2013-02-28 15:41:00,
2013-02-28 10:46:00,65.5,53.0,30.06,NNW,337,6.3,11.4,63,0.00,,,0.00,Rainwise IP-100,2013-02-28 15:46:00,
2013-02-28 10:51:00,65.6,52.0,30.05,NNW,337,4.9,11.7,62,0.00,,,0.00,Rainwise IP-100,2013-02-28 15:51:00,
2013-02-28 10:56:00,65.6,52.0,30.06,NNW,337,9.6,10.7,62,0.00,,,0.00,Rainwise IP-100,2013-02-28 15:56:00,
2013-02-28 11:01:00,65.6,52.0,30.06,NNW,337,6.1,13.3,62,0.00,,,0.00,Rainwise IP-100,2013-02-28 16:01:00,
2013-02-28 11:07:00,65.8,53.0,30.06,NNE,22,3.3,11.7,62,0.00,,,0.00,Rainwise IP-100,2013-02-28 16:07:00,
2013-02-28 11:12:00,66.1,53.0,30.06,NNW,337,4.2,8.2,62,0.00,,,0.00,Rainwise IP-100,2013-02-28 16:12:00,
2013-02-28 11:17:00,66.4,53.0,30.06,WNW,292,7.2,9.6,62,0.00,,,0.00,Rainwise IP-100,2013-02-28 16:17:00,
2013-02-28 11:22:00,66.4,52.0,30.06,WNW,292,4.0,10.5,60,0.00,,,0.00,Rainwise IP-100,2013-02-28 16:22:00,
2013-02-28 11:27:00,66.1,50.5,30.06,WNW,292,5.8,11.4,58,0.00,,,0.00,Rainwise IP-100,2013-02-28 16:27:00,
2013-02-28 11:32:00,66.0,50.5,30.06,WNW,292,7.2,12.1,58,0.00,,,0.00,Rainwise IP-100,2013-02-28 16:32:00,
2013-02-28 11:37:00,66.2,50.5,30.06,WNW,292,7.2,11.2,57,0.00,,,0.00,Rainwise IP-100,2013-02-28 16:37:00,
2013-02-28 11:42:00,66.3,51.0,30.05,WNW,292,3.3,11.7,58,0.00,,,0.00,Rainwise IP-100,2013-02-28 16:42:00,
2013-02-28 11:48:00,66.8,51.0,30.05,WNW,292,7.7,7.9,57,0.00,,,0.00,Rainwise IP-100,2013-02-28 16:48:00,
2013-02-28 11:53:00,67.2,51.0,30.06,WNW,292,6.8,13.3,56,0.00,,,0.00,Rainwise IP-100,2013-02-28 16:53:00,
2013-02-28 11:58:00,67.4,50.5,30.05,WNW,292,12.6,14.0,55,0.00,,,0.00,Rainwise IP-100,2013-02-28 16:58:00,
2013-02-28 12:03:00,67.6,50.0,30.05,NW,315,11.2,12.6,53,0.00,,,0.00,Rainwise IP-100,2013-02-28 17:03:00,
2013-02-28 12:08:00,68.0,50.5,30.05,NW,315,4.4,12.8,53,0.00,,,0.00,Rainwise IP-100,2013-02-28 17:08:00,
2013-02-28 12:13:00,68.3,50.5,30.05,NNW,337,10.7,10.7,53,0.00,,,0.00,Rainwise IP-100,2013-02-28 17:13:00,
2013-02-28 12:18:00,68.5,50.0,30.04,NNW,337,3.7,13.1,52,0.00,,,0.00,Rainwise IP-100,2013-02-28 17:18:00,
2013-02-28 12:24:00,69.4,50.0,30.04,NNW,337,2.1,9.3,50,0.00,,,0.00,Rainwise IP-100,2013-02-28 17:24:00,
2013-02-28 12:29:00,69.6,50.0,30.03,WNW,292,2.8,12.1,49,0.00,,,0.00,Rainwise IP-100,2013-02-28 17:29:00,
2013-02-28 12:34:00,69.7,50.5,30.03,NNW,337,2.8,11.7,50,0.00,,,0.00,Rainwise IP-100,2013-02-28 17:34:00,
2013-02-28 12:39:00,69.9,50.5,30.03,NW,315,4.4,12.8,50,0.00,,,0.00,Rainwise IP-100,2013-02-28 17:39:00,
2013-02-28 12:44:00,70.1,50.5,30.03,WNW,292,5.6,10.0,50,0.00,,,0.00,Rainwise IP-100,2013-02-28 17:44:00,
2013-02-28 12:49:00,70.4,50.5,30.02,WNW,292,3.7,9.8,49,0.00,,,0.00,Rainwise IP-100,2013-02-28 17:49:00,
2013-02-28 12:54:00,70.3,49.0,30.02,NNW,337,3.0,12.1,46,0.00,,,0.00,Rainwise IP-100,2013-02-28 17:54:00,
2013-02-28 12:59:00,69.7,48.0,30.02,NW,315,3.3,9.8,46,0.00,,,0.00,Rainwise IP-100,2013-02-28 17:59:00,
2013-02-28 13:05:00,68.8,48.0,30.02,WNW,292,9.1,9.8,48,0.00,,,0.00,Rainwise IP-100,2013-02-28 18:05:00,
2013-02-28 13:10:00,68.2,48.0,30.02,WNW,292,1.2,11.9,49,0.00,,,0.00,Rainwise IP-100,2013-02-28 18:10:00,
2013-02-28 13:15:00,68.1,47.5,30.01,NNW,337,5.4,9.8,48,0.00,,,0.00,Rainwise IP-100,2013-02-28 18:15:00,
2013-02-28 13:20:00,68.2,47.5,30.00,WNW,292,6.8,7.7,48,0.00,,,0.00,Rainwise IP-100,2013-02-28 18:20:00,
2013-02-28 13:25:00,67.9,47.0,30.00,NNW,337,1.2,6.8,47,0.00,,,0.00,Rainwise IP-100,2013-02-28 18:25:00,
2013-02-28 13:30:00,67.8,47.5,30.00,NNW,337,1.6,6.8,48,0.00,,,0.00,Rainwise IP-100,2013-02-28 18:30:00,
2013-02-28 13:35:00,67.9,49.0,30.00,NNE,22,3.3,7.2,50,0.00,,,0.00,Rainwise IP-100,2013-02-28 18:35:00,
2013-02-28 13:41:00,67.8,49.0,29.99,West,270,4.7,8.4,50,0.00,,,0.00,Rainwise IP-100,2013-02-28 18:41:00,
2013-02-28 13:46:00,67.4,48.0,30.00,WNW,292,3.5,8.2,50,0.00,,,0.00,Rainwise IP-100,2013-02-28 18:46:00,
2013-02-28 13:51:00,67.0,49.0,30.00,WNW,292,4.7,6.3,52,0.00,,,0.00,Rainwise IP-100,2013-02-28 18:51:00,
2013-02-28 13:56:00,67.0,50.0,30.00,NNW,337,1.9,8.4,53,0.00,,,0.00,Rainwise IP-100,2013-02-28 18:56:00,
2013-02-28 14:01:00,67.3,50.5,29.99,NNW,337,2.1,7.0,54,0.00,,,0.00,Rainwise IP-100,2013-02-28 19:01:00,
2013-02-28 14:06:00,67.4,50.0,30.00,WNW,292,4.0,7.9,53,0.00,,,0.00,Rainwise IP-100,2013-02-28 19:06:00,
2013-02-28 14:11:00,67.0,49.0,30.00,WNW,292,5.4,10.3,52,0.00,,,0.00,Rainwise IP-100,2013-02-28 19:11:00,
2013-02-28 14:16:00,66.7,48.0,29.99,WNW,292,6.5,7.2,51,0.00,,,0.00,Rainwise IP-100,2013-02-28 19:16:00,
2013-02-28 14:22:00,66.7,47.0,29.99,WNW,292,3.3,9.3,49,0.00,,,0.00,Rainwise IP-100,2013-02-28 19:22:00,
2013-02-28 14:27:00,66.8,47.0,29.99,WNW,292,6.5,10.5,48,0.00,,,0.00,Rainwise IP-100,2013-02-28 19:27:00,
2013-02-28 14:32:00,66.8,45.0,29.98,West,270,2.8,11.4,46,0.00,,,0.00,Rainwise IP-100,2013-02-28 19:32:00,
2013-02-28 14:37:00,66.8,45.0,29.99,WNW,292,4.0,9.1,45,0.00,,,0.00,Rainwise IP-100,2013-02-28 19:37:00,
2013-02-28 14:42:00,66.9,46.0,30.00,WNW,292,5.1,8.2,47,0.00,,,0.00,Rainwise IP-100,2013-02-28 19:42:00,
2013-02-28 14:47:00,66.9,47.5,29.99,WNW,292,5.1,10.7,49,0.00,,,0.00,Rainwise IP-100,2013-02-28 19:47:00,
2013-02-28 14:52:00,67.0,47.0,30.00,WNW,292,6.8,8.9,48,0.00,,,0.00,Rainwise IP-100,2013-02-28 19:52:00,
2013-02-28 14:58:00,66.9,47.0,29.98,WNW,292,4.4,8.4,48,0.00,,,0.00,Rainwise IP-100,2013-02-28 19:58:00,
2013-02-28 15:03:00,66.7,47.0,29.99,West,270,7.7,9.1,49,0.00,,,0.00,Rainwise IP-100,2013-02-28 20:03:00,
2013-02-28 15:08:00,66.5,48.0,29.98,NNW,337,2.8,8.6,51,0.00,,,0.00,Rainwise IP-100,2013-02-28 20:08:00,
2013-02-28 15:13:00,66.4,48.0,29.98,NW,315,2.8,8.6,52,0.00,,,0.00,Rainwise IP-100,2013-02-28 20:13:00,
2013-02-28 15:18:00,66.3,47.5,29.97,WNW,292,3.5,8.6,51,0.00,,,0.00,Rainwise IP-100,2013-02-28 20:18:00,
2013-02-28 15:23:00,66.4,47.5,29.98,West,270,4.7,6.1,50,0.00,,,0.00,Rainwise IP-100,2013-02-28 20:23:00,
2013-02-28 15:28:00,66.5,47.5,29.98,West,270,4.9,6.8,50,0.00,,,0.00,Rainwise IP-100,2013-02-28 20:28:00,
2013-02-28 15:33:00,66.6,47.5,29.98,WNW,292,5.1,9.1,50,0.00,,,0.00,Rainwise IP-100,2013-02-28 20:33:00,
2013-02-28 15:39:00,66.8,48.0,29.98,WNW,292,4.2,7.7,52,0.00,,,0.00,Rainwise IP-100,2013-02-28 20:39:00,
2013-02-28 15:44:00,67.2,49.0,29.98,NNW,337,3.3,8.4,52,0.00,,,0.00,Rainwise IP-100,2013-02-28 20:44:00,
2013-02-28 15:49:00,67.6,48.0,29.98,West,270,3.5,11.0,50,0.00,,,0.00,Rainwise IP-100,2013-02-28 20:49:00,
2013-02-28 15:54:00,67.7,49.0,29.98,WSW,247,2.1,8.9,51,0.00,,,0.00,Rainwise IP-100,2013-02-28 20:54:00,
2013-02-28 15:59:00,67.5,49.0,29.98,NNW,337,4.2,8.6,51,0.00,,,0.00,Rainwise IP-100,2013-02-28 20:59:00,
2013-02-28 16:04:00,67.4,47.5,29.98,WNW,292,6.5,8.2,49,0.00,,,0.00,Rainwise IP-100,2013-02-28 21:04:00,
2013-02-28 16:09:00,67.8,46.0,29.98,WSW,247,2.6,9.3,45,0.00,,,0.00,Rainwise IP-100,2013-02-28 21:09:00,
2013-02-28 16:15:00,68.5,45.0,29.98,WNW,292,0.0,4.7,43,0.00,,,0.00,Rainwise IP-100,2013-02-28 21:15:00,
2013-02-28 16:20:00,69.1,46.0,29.97,NNW,337,4.2,6.1,43,0.00,,,0.00,Rainwise IP-100,2013-02-28 21:20:00,
2013-02-28 16:25:00,69.3,45.0,29.98,WNW,292,3.0,6.1,42,0.00,,,0.00,Rainwise IP-100,2013-02-28 21:25:00,
2013-02-28 16:30:00,68.9,46.0,29.98,WSW,247,2.1,7.2,43,0.00,,,0.00,Rainwise IP-100,2013-02-28 21:30:00,
2013-02-28 16:35:00,68.8,46.0,29.97,West,270,4.0,4.4,44,0.00,,,0.00,Rainwise IP-100,2013-02-28 21:35:00,
2013-02-28 16:40:00,68.7,46.0,29.98,WSW,247,1.6,5.6,44,0.00,,,0.00,Rainwise IP-100,2013-02-28 21:40:00,
2013-02-28 16:45:00,68.1,46.0,29.98,West,270,1.4,6.3,45,0.00,,,0.00,Rainwise IP-100,2013-02-28 21:45:00,
2013-02-28 16:50:00,68.2,48.0,29.98,WSW,247,2.3,3.7,49,0.00,,,0.00,Rainwise IP-100,2013-02-28 21:50:00,
2013-02-28 16:56:00,68.4,50.0,29.98,WSW,247,1.9,4.0,51,0.00,,,0.00,Rainwise IP-100,2013-02-28 21:56:00,
2013-02-28 17:01:00,68.3,50.0,29.98,WNW,292,5.1,5.1,52,0.00,,,0.00,Rainwise IP-100,2013-02-28 22:01:00,
2013-02-28 17:06:00,68.2,49.0,29.98,WNW,292,4.9,6.3,50,0.00,,,0.00,Rainwise IP-100,2013-02-28 22:06:00,
2013-02-28 17:11:00,68.1,47.0,29.98,WNW,292,5.8,6.1,47,0.00,,,0.00,Rainwise IP-100,2013-02-28 22:11:00,
2013-02-28 17:16:00,68.2,45.0,29.98,WNW,292,3.0,7.0,44,0.00,,,0.00,Rainwise IP-100,2013-02-28 22:16:00,
2013-02-28 17:21:00,68.1,45.0,29.98,WNW,292,4.0,7.2,44,0.00,,,0.00,Rainwise IP-100,2013-02-28 22:21:00,
2013-02-28 17:26:00,68.0,47.0,29.98,WNW,292,4.9,5.8,46,0.00,,,0.00,Rainwise IP-100,2013-02-28 22:26:00,
2013-02-28 17:32:00,67.8,48.0,29.98,WNW,292,3.5,5.4,49,0.00,,,0.00,Rainwise IP-100,2013-02-28 22:32:00,
2013-02-28 17:37:00,67.7,48.0,29.99,WSW,247,1.6,6.8,50,0.00,,,0.00,Rainwise IP-100,2013-02-28 22:37:00,
2013-02-28 17:42:00,67.6,48.0,29.98,West,270,4.4,6.8,50,0.00,,,0.00,Rainwise IP-100,2013-02-28 22:42:00,
2013-02-28 17:47:00,67.5,49.0,29.99,WNW,292,4.2,6.1,51,0.00,,,0.00,Rainwise IP-100,2013-02-28 22:47:00,
2013-02-28 17:52:00,67.4,49.0,29.98,West,270,2.3,5.8,51,0.00,,,0.00,Rainwise IP-100,2013-02-28 22:52:00,
2013-02-28 17:57:00,67.3,49.0,29.98,West,270,3.0,6.8,51,0.00,,,0.00,Rainwise IP-100,2013-02-28 22:57:00,
2013-02-28 18:02:00,67.2,48.0,29.99,WSW,247,2.3,7.7,50,0.00,,,0.00,Rainwise IP-100,2013-02-28 23:02:00,
2013-02-28 18:07:00,67.2,47.5,29.99,West,270,2.8,4.9,49,0.00,,,0.00,Rainwise IP-100,2013-02-28 23:07:00,
2013-02-28 18:13:00,67.1,47.5,29.99,WNW,292,0.0,4.2,49,0.00,,,0.00,Rainwise IP-100,2013-02-28 23:13:00,
2013-02-28 18:18:00,67.0,47.5,30.00,West,270,3.5,4.9,49,0.00,,,0.00,Rainwise IP-100,2013-02-28 23:18:00,
2013-02-28 18:23:00,66.9,47.5,30.00,WNW,292,5.4,7.2,49,0.00,,,0.00,Rainwise IP-100,2013-02-28 23:23:00,
2013-02-28 18:28:00,66.9,47.5,30.00,WNW,292,3.7,7.5,49,0.00,,,0.00,Rainwise IP-100,2013-02-28 23:28:00,
2013-02-28 18:33:00,66.8,47.5,30.00,WSW,247,3.3,5.1,50,0.00,,,0.00,Rainwise IP-100,2013-02-28 23:33:00,
2013-02-28 18:38:00,66.6,47.5,30.00,West,270,3.3,6.3,50,0.00,,,0.00,Rainwise IP-100,2013-02-28 23:38:00,
2013-02-28 18:43:00,66.6,48.0,30.00,West,270,0.0,4.9,51,0.00,,,0.00,Rainwise IP-100,2013-02-28 23:43:00,
2013-02-28 18:49:00,66.4,48.0,30.00,WSW,247,2.3,3.7,52,0.00,,,0.00,Rainwise IP-100,2013-02-28 23:49:00,
2013-02-28 18:54:00,66.3,48.0,30.00,WSW,247,4.4,4.9,52,0.00,,,0.00,Rainwise IP-100,2013-02-28 23:54:00,
2013-02-28 18:59:00,66.3,48.0,30.00,WSW,247,2.8,5.1,52,0.00,,,0.00,Rainwise IP-100,2013-02-28 23:59:00,
2013-02-28 19:04:00,66.3,48.0,30.00,SW,225,2.8,3.3,53,0.00,,,0.00,Rainwise IP-100,2013-03-01 00:04:00,
2013-02-28 19:09:00,66.3,49.0,30.00,WSW,247,3.5,4.4,54,0.00,,,0.00,Rainwise IP-100,2013-03-01 00:09:00,
2013-02-28 19:14:00,66.2,49.0,29.99,WSW,247,0.0,4.2,54,0.00,,,0.00,Rainwise IP-100,2013-03-01 00:14:00,
2013-02-28 19:19:00,66.2,49.0,30.00,WSW,247,1.9,3.5,54,0.00,,,0.00,Rainwise IP-100,2013-03-01 00:19:00,
2013-02-28 19:24:00,66.2,50.0,30.00,WSW,247,1.2,3.3,55,0.00,,,0.00,Rainwise IP-100,2013-03-01 00:24:00,
2013-02-28 19:30:00,66.2,50.0,30.00,WSW,247,1.4,4.2,55,0.00,,,0.00,Rainwise IP-100,2013-03-01 00:30:00,
2013-02-28 19:35:00,66.2,50.0,30.00,WSW,247,2.3,5.8,55,0.00,,,0.00,Rainwise IP-100,2013-03-01 00:35:00,
2013-02-28 19:40:00,66.2,50.0,30.01,SSW,202,1.2,4.0,55,0.00,,,0.00,Rainwise IP-100,2013-03-01 00:40:00,
2013-02-28 19:45:00,66.2,50.0,30.00,SSW,202,0.0,2.6,55,0.00,,,0.00,Rainwise IP-100,2013-03-01 00:45:00,
2013-02-28 19:50:00,66.2,50.0,30.00,WSW,247,1.6,4.0,56,0.00,,,0.00,Rainwise IP-100,2013-03-01 00:50:00,
2013-02-28 19:55:00,66.1,50.0,30.01,SSW,202,0.0,3.3,56,0.00,,,0.00,Rainwise IP-100,2013-03-01 00:55:00,
2013-02-28 20:00:00,66.1,50.0,30.00,WSW,247,0.0,2.8,56,0.00,,,0.00,Rainwise IP-100,2013-03-01 01:00:00,
2013-02-28 20:06:00,66.0,50.0,30.00,WSW,247,0.0,3.5,56,0.00,,,0.00,Rainwise IP-100,2013-03-01 01:06:00,
2013-02-28 20:11:00,66.1,50.0,30.00,SSW,202,1.9,3.7,56,0.00,,,0.00,Rainwise IP-100,2013-03-01 01:11:00,
2013-02-28 20:16:00,66.2,50.0,30.00,SSW,202,0.0,3.3,56,0.00,,,0.00,Rainwise IP-100,2013-03-01 01:16:00,
2013-02-28 20:21:00,66.2,50.0,30.00,SSW,202,1.9,3.5,56,0.00,,,0.00,Rainwise IP-100,2013-03-01 01:21:00,
2013-02-28 20:26:00,66.2,50.5,30.00,SW,225,0.0,3.3,57,0.00,,,0.00,Rainwise IP-100,2013-03-01 01:26:00,
2013-02-28 20:31:00,66.1,50.5,30.01,SW,225,3.3,3.3,58,0.00,,,0.00,Rainwise IP-100,2013-03-01 01:31:00,
2013-02-28 20:36:00,66.0,51.0,30.01,WSW,247,1.2,4.4,59,0.00,,,0.00,Rainwise IP-100,2013-03-01 01:36:00,
2013-02-28 20:41:00,65.8,51.0,30.01,SW,225,3.0,3.3,59,0.00,,,0.00,Rainwise IP-100,2013-03-01 01:41:00,
2013-02-28 20:46:00,65.6,51.0,30.01,SSW,202,0.0,3.5,60,0.00,,,0.00,Rainwise IP-100,2013-03-01 01:46:00,
2013-02-28 20:52:00,65.4,51.0,30.01,SSW,202,1.2,3.5,60,0.00,,,0.00,Rainwise IP-100,2013-03-01 01:52:00,
2013-02-28 20:57:00,65.1,51.0,30.01,WSW,247,0.0,2.6,61,0.00,,,0.00,Rainwise IP-100,2013-03-01 01:57:00,
2013-02-28 21:02:00,65.0,51.0,30.01,WSW,247,1.4,3.5,62,0.00,,,0.00,Rainwise IP-100,2013-03-01 02:02:00,
2013-02-28 21:07:00,64.9,51.0,30.01,WSW,247,0.0,3.7,62,0.00,,,0.00,Rainwise IP-100,2013-03-01 02:07:00,
2013-02-28 21:12:00,64.7,51.0,30.01,WSW,247,2.3,2.8,63,0.00,,,0.00,Rainwise IP-100,2013-03-01 02:12:00,
2013-02-28 21:17:00,64.6,51.0,30.01,WSW,247,1.2,2.3,63,0.00,,,0.00,Rainwise IP-100,2013-03-01 02:17:00,
2013-02-28 21:22:00,64.4,51.0,30.01,WSW,247,1.2,4.4,63,0.00,,,0.00,Rainwise IP-100,2013-03-01 02:22:00,
2013-02-28 21:28:00,64.3,52.0,30.02,SW,225,0.0,4.2,64,0.00,,,0.00,Rainwise IP-100,2013-03-01 02:28:00,
2013-02-28 21:33:00,64.2,51.0,30.01,SW,225,0.0,1.4,64,0.00,,,0.00,Rainwise IP-100,2013-03-01 02:33:00,
2013-02-28 21:38:00,64.1,52.0,30.01,WSW,247,2.1,2.8,65,0.00,,,0.00,Rainwise IP-100,2013-03-01 02:38:00,
2013-02-28 21:43:00,64.1,51.0,30.01,WSW,247,1.6,2.8,64,0.00,,,0.00,Rainwise IP-100,2013-03-01 02:43:00,
2013-02-28 21:48:00,64.1,51.0,30.02,WSW,247,0.0,2.6,64,0.00,,,0.00,Rainwise IP-100,2013-03-01 02:48:00,
2013-02-28 21:53:00,64.0,52.0,30.01,SW,225,0.0,1.4,65,0.00,,,0.00,Rainwise IP-100,2013-03-01 02:53:00,
2013-02-28 21:58:00,63.9,52.0,30.01,WSW,247,3.0,3.0,65,0.00,,,0.00,Rainwise IP-100,2013-03-01 02:58:00,
2013-02-28 22:03:00,64.0,52.0,30.02,WSW,247,1.4,3.3,65,0.00,,,0.00,Rainwise IP-100,2013-03-01 03:03:00,
2013-02-28 22:09:00,64.1,52.0,30.02,SSW,202,0.0,3.5,65,0.00,,,0.00,Rainwise IP-100,2013-03-01 03:09:00,
2013-02-28 22:14:00,64.3,52.0,30.01,WSW,247,1.6,4.9,64,0.00,,,0.00,Rainwise IP-100,2013-03-01 03:14:00,
2013-02-28 22:19:00,64.5,51.0,30.02,SW,225,3.3,5.6,63,0.00,,,0.00,Rainwise IP-100,2013-03-01 03:19:00,
2013-02-28 22:24:00,64.7,51.0,30.02,WSW,247,2.8,4.9,62,0.00,,,0.00,Rainwise IP-100,2013-03-01 03:24:00,
2013-02-28 22:29:00,64.9,50.5,30.02,WSW,247,2.1,5.6,60,0.00,,,0.00,Rainwise IP-100,2013-03-01 03:29:00,
2013-02-28 22:34:00,65.0,50.5,30.02,WSW,247,0.0,4.0,59,0.00,,,0.00,Rainwise IP-100,2013-03-01 03:34:00,
2013-02-28 22:39:00,65.0,50.5,30.01,WSW,247,2.3,3.3,59,0.00,,,0.00,Rainwise IP-100,2013-03-01 03:39:00,
2013-02-28 22:45:00,65.1,50.5,30.01,WSW,247,3.0,3.7,59,0.00,,,0.00,Rainwise IP-100,2013-03-01 03:45:00,
2013-02-28 22:50:00,65.1,50.0,30.01,WSW,247,4.2,5.1,58,0.00,,,0.00,Rainwise IP-100,2013-03-01 03:50:00,
2013-02-28 22:55:00,65.1,50.0,30.01,WSW,247,1.6,4.2,58,0.00,,,0.00,Rainwise IP-100,2013-03-01 03:55:00,
2013-02-28 23:00:00,65.2,50.0,30.01,WSW,247,0.0,4.9,58,0.00,,,0.00,Rainwise IP-100,2013-03-01 04:00:00,
2013-02-28 23:05:00,65.2,50.0,30.01,WSW,247,2.1,4.9,58,0.00,,,0.00,Rainwise IP-100,2013-03-01 04:05:00,
2013-02-28 23:10:00,65.2,50.0,30.00,WSW,247,2.1,5.6,58,0.00,,,0.00,Rainwise IP-100,2013-03-01 04:10:00,
2013-02-28 23:15:00,65.2,50.0,30.00,WSW,247,0.0,5.6,58,0.00,,,0.00,Rainwise IP-100,2013-03-01 04:15:00,
2013-02-28 23:20:00,65.1,50.0,30.00,WSW,247,2.3,4.9,58,0.00,,,0.00,Rainwise IP-100,2013-03-01 04:20:00,
2013-02-28 23:26:00,65.1,50.5,30.00,WSW,247,1.6,3.7,59,0.00,,,0.00,Rainwise IP-100,2013-03-01 04:26:00,
2013-02-28 23:31:00,65.1,50.5,30.00,WSW,247,2.8,7.0,60,0.00,,,0.00,Rainwise IP-100,2013-03-01 04:31:00,
2013-02-28 23:36:00,65.1,50.5,30.00,WSW,247,3.5,4.9,60,0.00,,,0.00,Rainwise IP-100,2013-03-01 04:36:00,
2013-02-28 23:41:00,65.1,50.5,30.00,WSW,247,4.0,5.4,60,0.00,,,0.00,Rainwise IP-100,2013-03-01 04:41:00,
2013-02-28 23:46:00,65.1,51.0,30.01,WSW,247,1.9,7.0,61,0.00,,,0.00,Rainwise IP-100,2013-03-01 04:46:00,
2013-02-28 23:51:00,65.2,51.0,30.01,West,270,6.5,6.5,62,0.00,,,0.00,Rainwise IP-100,2013-03-01 04:51:00,
2013-02-28 23:56:00,65.2,51.0,30.00,WSW,247,1.6,7.2,62,0.00,,,0.00,Rainwise IP-100,2013-03-01 04:56:00,